KB3YPI Weather Reports


Display with metric or nautical units.
time (UTC)temp
F
wind
direction
speed
MPH
gust
MPH
rain 1hr
in
rain 24hr
in
rain mn
in
humidity
%
barometer
mb
20260507060513 53 310 0.0 0.0 0.00 0.00 0.00 74 1010.2
20260507060020 53 300 0.0 0.0 0.00 0.00 0.00 76 1010.2
20260507055510 53 46 0.0 0.0 0.00 0.00 0.00 78 1010.2
20260507055012 53 350 0.0 0.0 0.00 0.00 0.00 80 1010.1
20260507054509 53 350 0.0 0.0 0.00 0.00 0.00 81 1009.9
20260507054109 53 330 0.0 0.0 0.00 0.00 0.00 81 1010.1
20260507053508 54 255 0.0 0.0 0.00 0.00 0.00 82 1010.1
20260507053007 54 205 0.0 0.0 0.00 0.00 0.00 83 1010.2
20260507052506 54 302 0.0 0.0 0.00 0.00 0.00 82 1010.1
20260507052007 54 302 0.0 0.0 0.00 0.00 0.00 82 1010.1
20260507051508 54 298 0.0 0.0 0.00 0.00 0.00 83 1010.2
20260507051005 54 332 0.0 0.0 0.00 0.00 0.00 83 1010.2
20260507050505 54 332 0.0 0.0 0.00 0.00 0.00 83 1010.2
20260507050002 54 332 0.0 0.0 0.00 0.00 0.00 83 1010.0
20260507045502 54 279 0.0 0.0 0.00 0.00 0.00 83 1009.9
20260507045001 54 279 0.0 0.0 0.00 0.00 0.00 82 1010.3
20260507044600 54 304 0.0 0.0 0.00 0.00 0.00 82 1010.2
20260507044100 54 304 0.0 0.0 0.00 0.00 0.00 83 1010.3
20260507043558 55 302 0.0 0.0 0.00 0.00 0.00 83 1010.5
20260507043057 55 307 0.0 0.0 0.00 0.00 0.00 83 1010.3
20260507042556 55 313 0.0 0.0 0.00 0.00 0.00 82 1010.1
20260507042058 55 303 0.0 0.0 0.00 0.00 0.00 82 1010.1
20260507041555 55 324 0.0 0.0 0.00 0.00 0.00 82 1010.1
20260507041054 55 327 0.0 0.0 0.00 0.00 0.00 81 1009.9
20260507040553 55 332 0.0 0.0 0.00 0.00 0.00 82 1010.2
20260507040051 55 347 0.0 0.0 0.00 0.00 0.00 82 1010.1
20260507035521 55 347 0.0 0.0 0.00 0.00 0.00 80 1010.2
20260507035023 56 290 0.0 0.0 0.00 0.00 0.00 79 1010.2
20260507034530 56 288 0.0 0.0 0.00 0.00 0.00 80 1009.8
20260507034019 56 287 0.0 0.0 0.00 0.00 0.00 79 1010.0
20260507033521 56 284 0.0 0.0 0.00 0.00 0.00 78 1009.9
20260507033018 56 315 0.0 0.0 0.00 0.00 0.00 78 1009.8
20260507032548 56 294 0.0 0.0 0.00 0.00 0.00 79 1009.8
20260507032047 56 325 0.0 0.0 0.00 0.00 0.00 79 1009.4
20260507031547 56 311 0.0 0.0 0.00 0.00 0.00 78 1009.2
20260507031046 56 294 0.0 0.0 0.00 0.00 0.00 78 1009.4
20260507030545 56 300 0.0 0.0 0.00 0.00 0.00 80 1009.6
20260507030046 56 281 0.0 0.0 0.00 0.00 0.00 79 1009.6
20260507025513 56 346 0.0 0.0 0.00 0.00 0.00 79 1009.6
20260507025014 56 9 0.0 0.0 0.00 0.00 0.00 80 1009.5
20260507024516 56 346 0.0 0.0 0.00 0.00 0.00 80 1009.4
20260507024017 56 302 0.0 0.0 0.00 0.00 0.00 79 1009.6
20260507023513 57 161 0.0 0.0 0.00 0.00 0.00 80 1009.5
20260507023012 57 311 0.0 0.0 0.00 0.00 0.00 79 1009.5
20260507022509 57 281 0.0 0.0 0.00 0.00 0.00 79 1009.6
20260507022013 57 333 0.0 0.0 0.00 0.00 0.00 80 1009.4
20260507021508 57 320 0.0 0.0 0.00 0.00 0.00 79 1009.2
20260507021009 57 263 0.0 0.0 0.00 0.00 0.00 79 1009.2
20260507020508 57 162 0.0 0.0 0.00 0.00 0.00 80 1009.2
20260507020023 57 310 0.0 0.0 0.00 0.00 0.00 81 1009.3
20260507015506 57 320 0.0 0.0 0.00 0.00 0.00 82 1009.3
20260507015005 58 317 0.0 0.0 0.00 0.00 0.00 82 1009.3
20260507014505 58 212 0.0 0.0 0.00 0.00 0.00 81 1009.3
20260507014005 58 293 0.0 0.0 0.00 0.00 0.00 81 1009.3
20260507013503 58 273 0.0 0.0 0.00 0.00 0.00 81 1009.4
20260507013004 58 300 0.0 0.0 0.00 0.00 0.00 81 1009.5
20260507012532 58 294 0.0 0.0 0.00 0.00 0.00 81 1009.3
20260507012033 58 247 0.0 0.0 0.00 0.00 0.00 80 1009.4
20260507011530 58 221 0.0 0.0 0.00 0.00 0.00 80 1009.3
20260507011033 58 260 0.0 0.0 0.00 0.00 0.00 81 1009.3
20260507010532 58 283 0.0 0.0 0.00 0.00 0.00 81 1009.1
20260507010035 58 289 0.0 0.0 0.00 0.00 0.00 81 1008.9
20260507005629 59 225 0.0 0.0 0.00 0.00 0.00 82 1008.9
20260507005058 59 173 0.0 0.0 0.00 0.00 0.00 81 1009.0
20260507004556 59 267 0.0 0.0 0.00 0.00 0.00 82 1008.8
20260507004057 59 307 0.0 0.0 0.00 0.00 0.00 82 1008.9
20260507003554 59 24 0.0 0.0 0.00 0.00 0.00 82 1008.8
20260507003054 59 205 0.0 0.0 0.00 0.00 0.00 83 1008.8
20260507002553 59 256 0.0 0.0 0.00 0.00 0.00 83 1008.6
20260507002050 59 269 0.0 0.0 0.00 0.00 0.00 83 1008.3
20260507001552 59 318 0.0 0.0 0.00 0.00 0.00 83 1008.2
20260507001047 59 234 0.0 0.0 0.00 0.00 0.00 84 1008.1
20260507000549 59 263 0.0 0.0 0.00 0.00 0.00 83 1008.0
20260507000046 59 346 0.0 0.0 0.00 0.00 0.00 83 1007.8
20260506235545 59 316 0.0 0.0 0.00 0.00 0.00 84 1007.7
20260506235044 59 317 0.0 0.0 0.00 0.00 0.00 85 1007.6
20260506234545 59 5 0.0 0.0 0.00 0.00 0.00 85 1007.5
20260506234043 60 287 0.0 0.0 0.00 0.00 0.00 85 1007.2
20260506233546 60 348 0.0 0.0 0.00 0.00 0.00 85 1007.1
20260506233056 60 190 0.0 0.0 0.00 0.00 0.00 86 1007.0
20260506232542 60 258 0.0 0.0 0.00 0.00 0.00 86 1006.9
20260506232011 60 265 0.0 0.0 0.00 0.00 0.00 86 1007.0
20260506231509 61 281 0.0 0.0 0.00 0.00 0.00 86 1006.9
20260506231008 61 300 0.0 0.0 0.00 0.00 0.00 88 1007.1
20260506230506 61 294 0.0 0.0 0.00 0.00 0.00 88 1006.9
20260506230005 62 275 0.0 0.0 0.00 0.00 0.00 89 1006.9
20260506225504 62 256 0.0 0.0 0.00 0.00 0.00 89 1006.9
20260506225001 62 341 0.0 0.0 0.00 0.00 0.00 90 1006.8
20260506224503 63 276 0.0 0.0 0.00 0.00 0.00 90 1006.7
20260506224100 63 306 0.0 0.0 0.00 0.00 0.00 90 1006.7
20260506223600 63 301 0.0 0.0 0.00 0.00 0.00 91 1006.6
20260506223100 64 276 0.0 0.0 0.00 0.00 0.00 92 1006.5
20260506222600 64 267 0.0 0.0 0.00 0.00 0.00 92 1006.5
20260506222100 64 267 0.0 0.0 0.00 0.00 0.00 90 1006.3
20260506221601 64 266 0.0 0.0 0.00 0.00 0.00 89 1006.3
20260506221100 65 268 0.0 0.0 0.00 0.00 0.00 89 1006.3
20260506220602 65 289 0.0 0.0 0.00 0.00 0.00 89 1006.3
20260506220101 66 286 0.0 0.0 0.00 0.00 0.00 88 1006.3
20260506215602 66 284 0.0 0.0 0.00 0.00 0.00 87 1006.1
20260506215028 66 169 0.0 0.0 0.00 0.00 0.00 86 1006.0
20260506214528 66 169 0.0 0.0 0.00 0.00 0.00 85 1005.9
20260506214030 66 177 0.0 0.0 0.00 0.00 0.00 85 1005.8
20260506213527 67 175 0.0 0.0 0.00 0.00 0.00 84 1005.7
20260506213028 67 175 0.0 0.0 0.00 0.00 0.00 84 1005.6
20260506212528 67 171 0.0 0.0 0.00 0.00 0.00 85 1005.5
20260506212101 67 167 0.0 0.0 0.00 0.00 0.00 85 1005.5
20260506211609 67 167 0.0 0.0 0.00 0.00 0.00 85 1005.5
20260506211057 67 171 0.0 0.0 0.00 0.00 0.00 86 1005.4
20260506210557 67 171 0.0 0.0 0.00 0.00 0.00 86 1005.4
20260506210057 67 224 0.0 0.0 0.00 0.00 0.00 87 1005.5
20260506205556 66 224 0.0 0.0 0.00 0.00 0.00 86 1005.5
20260506205026 66 225 0.0 0.0 0.00 0.00 0.00 86 1005.4
20260506204526 67 169 0.0 0.0 0.00 0.00 0.00 86 1005.4
20260506204026 67 167 0.0 0.0 0.00 0.00 0.00 85 1005.4
20260506203529 67 281 0.0 0.0 0.00 0.00 0.00 85 1005.4
20260506203026 67 336 0.0 0.0 0.00 0.00 0.00 85 1005.4
20260506202526 67 248 0.0 0.0 0.00 0.00 0.00 85 1005.4
20260506202022 67 257 0.0 0.0 0.00 0.00 0.00 86 1005.3
20260506201525 67 279 0.0 0.0 0.00 0.00 0.00 87 1005.3
20260506201024 66 197 0.0 0.0 0.00 0.00 0.00 87 1005.3
20260506200521 66 173 0.0 0.0 0.00 0.00 0.00 87 1005.4
20260506200034 66 180 0.0 0.0 0.00 0.00 0.00 87 1005.4
20260506195519 65 264 0.0 0.0 0.00 0.00 0.00 90 1005.4
20260506195018 65 223 0.0 0.0 0.00 0.00 0.00 91 1005.4
20260506194517 64 225 0.0 0.0 0.00 0.00 0.00 91 1005.5
20260506194016 64 215 0.0 0.0 0.00 0.00 0.00 91 1005.6
20260506193514 0 0.0 0.0 0.00 0.00 0.00 1005.6
20260506193013 0 0.0 0.0 0.00 0.00 0.00 1005.7
20260506192511 0 0.0 0.0 0.00 0.00 0.00 1005.7
20260506192010 0 0.0 0.0 0.00 0.00 0.00 1005.7
20260506191539 0 0.0 0.0 0.00 0.00 0.00 1005.7
20260506191037 0 0.0 0.0 0.00 0.00 0.00 1005.8
20260506190535 0 0.0 0.0 0.00 0.00 0.00 1005.8
20260506190034 0 0.0 0.0 0.00 0.00 0.00 1005.8
20260506185533 0 0.0 0.0 0.00 0.00 0.00 1005.8
20260506185031 0 0.0 0.0 0.00 0.00 0.00 1005.9
20260506184527 0 0.0 0.0 0.00 0.00 0.00 1006.0
20260506184029 0 0.0 0.0 0.00 0.00 0.00 1006.0
20260506183526 0 0.0 0.0 0.00 0.00 0.00 1006.1
20260506183024 0 0.0 0.0 0.00 0.00 0.00 1006.0
20260506182521 0 0.0 0.0 0.00 0.00 0.00 1006.0
20260506182020 0 0.0 0.0 0.00 0.00 0.00 1006.0
20260506181519 0 0.0 0.0 0.00 0.00 0.00 1006.1
20260506181016 0 0.0 0.0 0.00 0.00 0.00 1006.1
20260506180515 0 0.0 0.0 0.00 0.00 0.00 1006.2
20260506180018 0 0.0 0.0 0.00 0.00 0.00 1006.2
20260506175512 0 0.0 0.0 0.00 0.00 0.00 1006.2
20260506175010 0 0.0 0.0 0.00 0.00 0.00 1006.2
20260506174507 0 0.0 0.0 0.00 0.00 0.00 1006.2
20260506174005 0 0.0 0.0 0.00 0.00 0.00 1006.2
20260506173504 0 0.0 0.0 0.00 0.00 0.00 1006.2
20260506173003 0 0.0 0.0 0.00 0.00 0.00 1006.2
20260506172501 0 0.0 0.0 0.00 0.00 0.00 1006.2
20260506172059 0 0.0 0.0 0.00 0.00 0.00 1006.2
20260506171609 0 0.0 0.0 0.00 0.00 0.00 1006.2
20260506171057 0 0.0 0.0 0.00 0.00 0.00 1006.3
20260506170555 0 0.0 0.0 0.00 0.00 0.00 1006.2
20260506170100 0 0.0 0.0 0.00 0.00 0.00 1006.3
20260506165552 0 0.0 0.0 0.00 0.00 0.00 1006.3
20260506165050 0 0.0 0.0 0.00 0.00 0.00 1006.3
20260506164519 0 0.0 0.0 0.00 0.00 0.00 1006.3
20260506164017 0 0.0 0.0 0.00 0.00 0.00 1006.3
20260506163516 0 0.0 0.0 0.00 0.00 0.00 1006.3
20260506163015 0 0.0 0.0 0.00 0.00 0.00 1006.4
20260506162514 0 0.0 0.0 0.00 0.00 0.00 1006.3
20260506162012 0 0.0 0.0 0.00 0.00 0.00 1006.4
20260506161508 0 0.0 0.0 0.00 0.00 0.00 1006.4
20260506161007 0 0.0 0.0 0.00 0.00 0.00 1006.4
20260506160505 0 0.0 0.0 0.00 0.00 0.00 1006.3
20260506160010 0 0.0 0.0 0.00 0.00 0.00 1006.3
20260506155502 0 0.0 0.0 0.00 0.00 0.00 1006.3
20260506155001 0 0.0 0.0 0.00 0.00 0.00 1006.5
20260506154559 0 0.0 0.0 0.00 0.00 0.00 1006.4
20260506154058 0 0.0 0.0 0.00 0.00 0.00 1006.4
20260506153556 0 0.0 0.0 0.00 0.00 0.00 1006.3
20260506153056 0 0.0 0.0 0.00 0.00 0.00 1006.3
20260506152553 0 0.0 0.0 0.00 0.00 0.00 1006.2
20260506152052 0 0.0 0.0 0.00 0.00 0.00 1006.2
20260506151550 0 0.0 0.0 0.00 0.00 0.00 1006.2
20260506151046 0 0.0 0.0 0.00 0.00 0.00 1006.2
20260506150544 0 0.0 0.0 0.00 0.00 0.00 1006.4
20260506150043 0 0.0 0.0 0.00 0.00 0.00 1006.4
20260506145544 0 0.0 0.0 0.00 0.00 0.00 1006.5
20260506145041 0 0.0 0.0 0.00 0.00 0.00 1006.5
20260506144539 0 0.0 0.0 0.00 0.00 0.00 1006.6
20260506144037 0 0.0 0.0 0.00 0.00 0.00 1006.8
20260506143536 0 0.0 0.0 0.00 0.00 0.00 1006.9
20260506143036 0 0.0 0.0 0.00 0.00 0.00 1007.1
20260506142534 0 0.0 0.0 0.00 0.00 0.00 1007.1
20260506142031 0 0.0 0.0 0.00 0.00 0.00 1007.1
20260506141530 0 0.0 0.0 0.00 0.00 0.00 1007.0
20260506141026 0 0.0 0.0 0.00 0.00 0.00 1006.9
20260506140525 0 0.0 0.0 0.00 0.00 0.00 1006.8
20260506140023 0 0.0 0.0 0.00 0.00 0.00 1006.7
20260506135521 0 0.0 0.0 0.00 0.00 0.00 1006.6
20260506135020 0 0.0 0.0 0.00 0.00 0.00 1006.5
20260506134520 0 0.0 0.0 0.00 0.00 0.00 1006.6
20260506134017 0 0.0 0.0 0.00 0.00 0.00 1006.6
20260506133515 0 0.0 0.0 0.00 0.00 0.00 1006.6
20260506133015 0 0.0 0.0 0.00 0.00 0.00 1006.5
20260506132513 0 0.0 0.0 0.00 0.00 0.00 1006.6
20260506132016 0 0.0 0.0 0.00 0.00 0.00 1006.7
20260506131516 0 0.0 0.0 0.00 0.00 0.00 1006.8
20260506131006 0 0.0 0.0 0.00 0.00 0.00 1006.8
20260506130504 0 0.0 0.0 0.00 0.00 0.00 1006.7
20260506130003 0 0.0 0.0 0.00 0.00 0.00 1006.7
20260506125502 0 0.0 0.0 0.00 0.00 0.00 1006.7
20260506125059 0 0.0 0.0 0.00 0.00 0.00 1006.6
20260506124558 0 0.0 0.0 0.00 0.00 0.00 1006.7
20260506124056 0 0.0 0.0 0.00 0.00 0.00 1006.7
20260506123555 0 0.0 0.0 0.00 0.00 0.00 1006.8
20260506123054 0 0.0 0.0 0.00 0.00 0.00 1006.8
20260506122553 0 0.0 0.0 0.00 0.00 0.00 1006.9
20260506122050 0 0.0 0.0 0.00 0.00 0.00 1007.0
20260506121559 0 0.0 0.0 0.00 0.00 0.00 1007.1
20260506121048 0 0.0 0.0 0.00 0.00 0.00 1007.1
20260506120517 0 0.0 0.0 0.00 0.00 0.00 1007.2
20260506120015 0 0.0 0.0 0.00 0.00 0.00 1007.3
20260506115515 0 0.0 0.0 0.00 0.00 0.00 1007.3
20260506115012 0 0.0 0.0 0.00 0.00 0.00 1007.3
20260506114512 0 0.0 0.0 0.00 0.00 0.00 1007.2
20260506114010 62 5 0.0 0.0 0.00 0.00 0.00 77 1007.1
20260506113540 62 5 0.0 0.0 0.00 0.00 0.00 77 1006.9
20260506113039 64 150 0.0 0.0 0.00 0.00 0.00 76 1006.7
20260506112539 65 149 0.0 0.0 0.00 0.00 0.00 75 1006.6
20260506112036 65 183 0.0 0.0 0.00 0.00 0.00 74 1006.7
20260506111536 65 150 0.0 0.0 0.00 0.00 0.00 73 1006.7
20260506111034 65 185 0.0 0.0 0.00 0.00 0.00 72 1006.6
20260506110532 66 168 0.0 0.0 0.00 0.00 0.00 70 1006.5
20260506110030 66 186 0.0 0.0 0.00 0.00 0.00 69 1006.5
20260506105529 66 191 0.0 0.0 0.00 0.00 0.00 67 1006.4
20260506105027 66 152 0.0 0.0 0.00 0.00 0.00 67 1006.4
20260506104526 66 181 0.0 0.0 0.00 0.00 0.00 65 1006.3
20260506104026 67 184 0.0 0.0 0.00 0.00 0.00 65 1006.2
20260506103525 67 184 0.0 0.0 0.00 0.00 0.00 64 1006.2
20260506103029 67 169 0.0 0.0 0.00 0.00 0.00 64 1006.1
20260506102523 67 186 0.0 0.0 0.00 0.00 0.00 63 1006.1
20260506102023 67 194 0.0 0.0 0.00 0.00 0.00 63 1006.0
20260506101524 67 204 0.0 0.0 0.00 0.00 0.00 63 1006.0
20260506101023 67 148 0.0 0.0 0.00 0.00 0.00 62 1005.9
20260506100520 67 107 0.0 0.0 0.00 0.00 0.00 62 1005.9
20260506100022 67 209 0.0 0.0 0.00 0.00 0.00 62 1005.9
20260506095520 67 214 0.0 0.0 0.00 0.00 0.00 61 1005.8
20260506095019 67 199 0.0 0.0 0.00 0.00 0.00 62 1005.8
20260506094529 67 120 0.0 0.0 0.00 0.00 0.00 61 1005.7
20260506094018 67 151 0.0 0.0 0.00 0.00 0.00 61 1005.6
20260506093517 67 173 0.0 0.0 0.00 0.00 0.00 61 1005.8
20260506093029 67 167 0.0 0.0 0.00 0.00 0.00 61 1005.8
20260506092516 68 210 0.0 0.0 0.00 0.00 0.00 60 1005.8
20260506092015 68 196 0.0 0.0 0.00 0.00 0.00 60 1005.9
20260506091515 68 248 0.0 0.0 0.00 0.00 0.00 60 1006.0
20260506091015 68 148 0.0 0.0 0.00 0.00 0.00 59 1006.0
20260506090512 68 277 0.0 0.0 0.00 0.00 0.00 59 1006.0
20260506090013 68 150 0.0 0.0 0.00 0.00 0.00 59 1006.1
20260506085511 68 148 0.0 0.0 0.00 0.00 0.00 59 1006.1
20260506085010 68 184 0.0 0.0 0.00 0.00 0.00 58 1006.1
20260506084510 68 179 0.0 0.0 0.00 0.00 0.00 58 1006.2
20260506084010 68 191 0.0 0.0 0.00 0.00 0.00 58 1006.2
20260506083512 68 240 0.0 0.0 0.00 0.00 0.00 58 1006.2
20260506083009 68 211 0.0 0.0 0.00 0.00 0.00 58 1006.1
20260506082513 68 209 0.0 0.0 0.00 0.00 0.00 58 1006.1
20260506082009 68 134 0.0 0.0 0.00 0.00 0.00 58 1006.1
20260506081508 68 134 0.0 0.0 0.00 0.00 0.00 57 1006.1
20260506081007 68 140 0.0 0.0 0.00 0.00 0.00 57 1006.2
20260506080505 68 180 0.0 0.0 0.00 0.00 0.00 57 1006.1
20260506073502 69 183 0.0 0.0 0.00 0.00 0.00 55 1006.1
20260506073002 69 217 0.0 0.0 0.00 0.00 0.00 55 1006.1
20260506072502 69 147 0.0 0.0 0.00 0.00 0.00 55 1006.2
20260506072101 69 192 0.0 0.0 0.00 0.00 0.00 55 1006.2
20260506071602 69 136 0.0 0.0 0.00 0.00 0.00 54 1006.3
20260506071059 69 232 0.0 0.0 0.00 0.00 0.00 55 1006.3
20260506070559 69 191 0.0 0.0 0.00 0.00 0.00 54 1006.4
20260506070115 69 277 0.0 0.0 0.00 0.00 0.00 54 1006.4
20260506062052 69 208 0.0 0.0 0.00 0.00 0.00 51 1006.9
20260506061551 69 165 0.0 0.0 0.00 0.00 0.00 51 1007.0
20260506061050 69 174 0.0 0.0 0.00 0.00 0.00 51 1006.9
20260506060550 69 276 0.0 0.0 0.00 0.00 0.00 50 1007.0